Tracking 28902 objects as of 19-May-2024
HD Live streaming from Space Station
objects crossing your sky now

ARIANE 5 R/B

Track ARIANE 5 R/B now!


NORAD ID: 28787
Int'l Code: 2005-028B
Perigee: 532.5 km
Apogee: 35,691.0 km
Inclination: 6.6 °
Period: 635.4 minutes
Semi major axis: 24482 km
RCS: 17.904 m2 (large)
Launch date: August 11, 2005
Source: France (FR)
Launch site: FRENCH GUIANA (FRGUI)

Note: This is a ROCKET BODY
Your satellite tracking list
Your tracking list is empty




NASA's NSSDC Master Catalog

Two Line Element Set (TLE):
1 28787U 05028B   24139.28430626  .00000107  00000-0  15759-2 0  9994
2 28787   6.5693 149.8440 7180270 302.2975   7.5828  2.26627655155402
Source of the keplerian elements: AFSPC